CZ-6A DEB, 56608

Orbit data source: Space-Track

CZ-6A DEB, 56608 is space debris in SSO originally from a launch on Fri, 11 Nov 2022 UTC launched from the Taiyaun Space Center, China (TSC). Debris objects in space refer to the collection of defunct objects orbiting the Earth. Examples of debris include non-operational satellites, rocket bodies, and fragments generated from explosions, collisions, or faulty payload assembly.

Loading next visibility...
Identifier
56608, 2022-151AEG
Orbit
SSO
Country
Flag of CNCN / PRC
Related business
Manufacturer
SAST
Mission
Spacecraft
Bus & Motor
Unknown
Mass
Unknown
Launch date (UTC)
2022-11-11 (4 years ago)
Launch vehicle
Unknown
Launch site
Taiyaun Space Center, China (TSC)
Object type
Payload
Rocket body
Debris
Shape & HBR
Unknown shape, 0.1 m
Radar Cross Section
Medium (>0.1 m² and <1 m²)

Expand to show TLE details & history
Last TLE update: 4 days ago

TLE from 4 days ago
0 CZ-6A DEB
1 56608U 22151AEG 26218.51292738  .00001109  00000-0  57719-3 0  9995
2 56608  98.8918 242.0683 0032793 174.2367 185.9191 14.16448769169694
Epoch: 2026-08-06T12:18Z
TLE epoch observation values (Epoch: 2026-08-06T12:18:36.925Z)
Latitude
Longitude
102.36254°
Altitude
863.833 km
Speed
7.408 km/s
True Right ascension
16h 08m 16s
True Declination
0° 00' 00"
Sunlit
Object was in daylight at epoch
Visualization orbit readout
Latitude
Unknown
Longitude
Unknown
Altitude
Unknown
Speed
Unknown
Apparent Right ascension
Unknown
Apparent Declination
Unknown
Sunlit
N/A
Visualization observer readout
Local Sidereal Time
15:59:46
Azimuth
Unknown
Elevation
Unknown
Doppler factor
Unknown
Orbital elements
Apogee altitude
858.213 km
Perigee altitude
810.907 km
Semi-major axis
7,212.697 km
Eccentricity
0.00328
Inclination
98.8918°
RAAN
242.0683°
Arg. of periapsis
174.2367°
True anomaly
185.88051°
Mean anomaly
185.9191°
Eccentric anomaly
185.89979°
Mean motion
3.54321 °/min
Orbital period
101.6 mins
BSTAR
0.00057719
Loading maneuver chart data...
Computing Atmospheric mass density...

Documentation

Showing up to 5 results
|